Regional Weather Roundup
Issued by NWS Portland, ME

Current Version | Previous Version | Text Only | Print | Product List | Glossary On
Versions: 1 2 3 4 5 6 7 8 9 10 11 12 13 14 15 16 17 18 19 20 21 22 23 24 25 26 27 28 29 30 31 32 33 34 35 36 37 38 39 40 41 42 43 44 45 46 47 48 49 50
000
ASUS41 KGYX 280110
RWRGYX
WEATHER ROUNDUP FOR MAINE AND NEW HAMPSHIRE
NATIONAL WEATHER SERVICE GRAY ME
800 PM EST MON FEB 27 2017

MEZ002-005-006-010-012-015-018-020-021-024-026-027-029-280200-
MAINE

CITY           SKY/WX    TMP DP  RH WIND       PRES   REMARKS
PORTLAND       CLEAR     45  20  36 W7        30.28R
SANFORD        CLEAR     43  22  43 SW3       30.29R
WISCASSET      CLEAR     45  21  38 SW5       30.27R
ROCKLAND       MOCLDY    35  29  78 W5        30.26
FRYEBURG       CLEAR     43  22  43 SW6       30.25R
LEWISTONAUBURN CLEAR     44  23  43 SW9       30.26R
AUGUSTA        CLOUDY    41  19  41 SW5       30.24R
WATERVILLE     CLEAR     43  23  45 W8        30.20R
BANGOR         MOCLDY    40  23  50 SW5       30.24R
GREENVILLE       N/A     33  25  72 VRB5      30.15R
MILLINOCKET    CLEAR     36  24  62 VRB5      30.21R
HOULTON        CLOUDY    35  24  64 W6        30.16R
PRESQUE ISLE   CLOUDY    28  21  75 N8        30.18R
FRENCHVILLE    CLEAR     22   8  55 N3        30.15R
CARIBOU        CLOUDY    28  14  55 N12       30.16R WCI  18
$$

NHZ002-005-008-009-011-012-014-280200-
NEW HAMPSHIRE

CITY           SKY/WX    TMP DP  RH WIND       PRES   REMARKS
PORTSMOUTH     PTCLDY    46  19  33 SW7       30.29R
ROCHESTER      CLOUDY    46  19  34 CALM      30.28R
NASHUA         PTCLDY    40  22  48 CALM      30.32R
MANCHESTER     PTCLDY    46  17  31 S5        30.30R
CONCORD        CLOUDY    45  20  36 CALM      30.29R
LACONIA        PTCLDY    41  24  51 S3        30.28R
PLYMOUTH       FAIR      35  25  67 E5        30.27R
BERLIN         PTCLDY    37  23  56 CALM      30.21R
WHITEFIELD     CLOUDY    36  24  62 S3        30.24R
JAFFREY        CLEAR     36  21  54 S5        30.30R
KEENE          PTCLDY    32  24  72 S6        30.31R
LEBANON        MOCLDY    38  28  67 S9        30.26S
MT WASHINGTON  SNOWSHWR  16  16 100 W66         N/A  VSB 0   WCI -11
$$

VTZ005-007-008-280200-
VERMONT

CITY           SKY/WX    TMP DP  RH WIND       PRES   REMARKS
ST JOHNSBURY     N/A     38  26  62 MISG      30.23R
MONTPELIER     CLOUDY    42  23  46 VRB7G16   30.27R
BURLINGTON     CLEAR     43  25  49 VRB3      30.27R
$$

MAZ007-012-024-CTZ003-RIZ002-NYZ038-NYZ072-280200-
SOUTHERN NEW ENGLAND AND NY

CITY           SKY/WX    TMP DP  RH WIND       PRES   REMARKS
BOSTON         CLEAR     46  25  43 SW16      30.35R
WORCESTER      CLEAR     40  22  48 SW12      30.32R
NANTUCKET      CLEAR     41  35  79 SW13      30.44R
PROVIDENCE     CLEAR     42  30  62 SW10      30.40R
HARTFORD       CLEAR     44  27  51 S10       30.36R
ALBANY         MOCLDY    45  20  36 SW9       30.32R
NEW YORK CITY  CLOUDY    52  28  39 SW8       30.39S
$$

ANZ081-ANZ082-ANZ150-NHZ014-MEZ023>029-280200-
COASTAL MARINE OBSERVATIONS

STATION/POSITION TIME  TEMP    WIND        PRES    WAVE
                       AIR SEA DIR/SP/G            HT/PER
                 (UTC) (F)     (DEG/KT/KT) (MB)    (FT/S)
MOUNT DESERT ROC 0000   42                 1023.8R
MATINICUS ROCK   0000   43     230/ 23/ 25 1023.5R
ISLE OF SHOALS   0000   50     250/ 20/ 21 1025.3R
JEFFREYS LEDGE   0006      43                N/A     5/ 6
CASHES LEDGE BUO 2350   44 42              1024.8    7/ 6
GEORGES BANK BUO 2350   44 44              1030.2    6/ 7
$$

.............KEY..............
   WCI - WIND CHILL
   TC  - TEMPERATURE IN CELSIUS
   VSB - VISIBILITY IN MILES
   HX  - HEAT INDEX
   FAIR- INDICATES FEW OR NO CLOUDS BELOW 12,000 FT, WITH NO
         SIGNIFICANT WEATHER AND/OR OBSTRUCTIONS TO VISIBILITY.





USA.gov is the U.S. government's official web portal to all federal, state and local government web resources and services.